Location: Luxembourg
(49.6117°N, 6.1300°E)
Time: 05:26:59
(UTC+01:00)

ISS - Visible Passes

Search period start: 26 February 2020 00:00
Search period end: 07 March 2020 00:00
Orbit: 415 x 423 km, 51.6° (Epoch: 27 February)

Date Brightness Start Highest point End Pass type
(mag) Time Alt. Az. Time Alt. Az. Time Alt. Az.
26 Feb -1.8 05:11:56 22° SSE 05:12:14 22° SE 05:14:57 10° E visible
26 Feb -3.7 06:45:21 10° WSW 06:48:43 86° S 06:52:07 10° ENE visible
27 Feb -0.6 04:26:22 12° ESE 04:26:22 12° ESE 04:26:51 10° E visible
27 Feb -3.5 05:59:19 25° SW 06:01:07 65° SSE 06:04:29 10° ENE visible
28 Feb -3.0 05:13:39 46° SE 05:13:39 46° SE 05:16:47 10° ENE visible
28 Feb -3.6 06:46:55 10° W 06:50:17 65° N 06:53:40 10° ENE visible
29 Feb -1.0 04:27:54 18° E 04:27:54 18° E 04:29:01 10° E visible
29 Feb -3.8 06:00:51 26° W 06:02:36 77° NNW 06:06:00 10° ENE visible
01 Mar -3.8 05:15:03 81° E 05:15:03 81° E 05:18:19 10° ENE visible
02 Mar -1.3 04:29:12 23° E 04:29:12 23° E 04:30:37 10° ENE visible
02 Mar -3.5 06:02:09 22° W 06:04:08 60° N 06:07:29 10° ENE visible
03 Mar -3.7 05:16:16 65° NNW 05:16:23 66° N 05:19:46 10° ENE visible
04 Mar -1.6 04:30:22 27° ENE 04:30:22 27° ENE 04:32:02 10° ENE visible
04 Mar -3.5 06:03:19 18° WNW 06:05:38 61° N 06:09:00 10° E visible
05 Mar -3.5 05:17:24 51° NW 05:17:52 58° N 05:21:14 10° E visible
06 Mar -1.9 04:31:30 31° ENE 04:31:30 31° ENE 04:33:27 10° ENE visible
06 Mar -3.7 06:04:26 16° WNW 06:07:04 81° NNE 06:10:28 10° ESE visible
